Weather History for KABI - March, 2014

Change the Weather History Date:

Saturday, March 15, 2014

  Actual Average Record
Temperature  
Mean Temperature 62 °F 56 °F  
Max Temperature 71 °F 68 °F 88 °F (1961)
Min Temperature 53 °F 44 °F 22 °F (1962)
Degree Days  
Heating Degree Days 3 10  
Month to date heating degree days 218 172  
Since 1 July heating degree days 2580 2305  
Cooling Degree Days 0 1  
Month to date cooling degree days 6 10  
Year to date cooling degree days 11 15  
Growing Degree Days 13 (Base 50)    
Moisture  
Dew Point 53 °F    
Average Humidity 73    
Maximum Humidity 93    
Minimum Humidity 52    
Precipitation  
Precipitation 0.61 in 0.06 in 1.32 in (1998)
Month to date precipitation 0.64 0.85  
Year to date precipitation 1.13 3.23  
Sea Level Pressure  
Sea Level Pressure 29.77 in    
Wind  
Wind Speed 7 mph (SSE)    
Max Wind Speed 28 mph    
Max Gust Speed 34 mph    
Visibility 8 miles    
Events Fog , Rain , Thunderstorm    
T = Trace of Precipitation, MM = Missing Value Source: NWS Daily Summary

Daily Weather History Graph

Daily Weather History Graph

Search for Another Location

Airport or City:

Trip Planner

Search our weather history database for the weather conditions in past years. The results will help you decide how hot, cold, wet, or windy it might be!

Date:

Astronomy

Mar. 15, 2014 Rise Set
Actual Time 7:48 AM CDT 7:46 PM CDT
Civil Twilight 7:24 AM CDT 8:11 PM CDT
Nautical Twilight 6:55 AM CDT 8:39 PM CDT
Astronomical Twilight 6:27 AM CDT 9:08 PM CDT
Moon 7:08 PM CDT (3/15) 6:59 AM CDT (3/15)
Length of Visible Light 12h 46m
Length of Day
11h 57m
Waxing Gibbous, 99% of the Moon is Illuminated
Mar 15
Waxing Gibbous
Mar 16
Full
Mar 23
Last Quarter
Mar 30
New
Apr 7
First Quarter

Hourly Weather History & Observations

Time (CDT) Temp. Dew Point Humidity Pressure Visibility Wind Dir Wind Speed Gust Speed Precip Events Conditions
12:52 AM 64.0 °F 48.9 °F 58% 29.85 in 10.0 mi SSE 12.7 mph - N/A   Clear
1:52 AM 63.0 °F 48.9 °F 60% 29.85 in 10.0 mi South 5.8 mph - N/A   Clear
2:52 AM 63.0 °F 48.9 °F 60% 29.85 in 10.0 mi South 8.1 mph - N/A   Clear
3:52 AM 62.1 °F 50.0 °F 65% 29.83 in 10.0 mi South 9.2 mph - N/A   Clear
4:52 AM 61.0 °F 50.0 °F 67% 29.83 in 10.0 mi SSE 5.8 mph - N/A   Clear
5:52 AM 59.0 °F 50.0 °F 72% 29.84 in 10.0 mi Calm Calm - N/A   Clear
6:52 AM 57.9 °F 52.0 °F 81% 29.84 in 10.0 mi SE 5.8 mph - N/A   Clear
7:52 AM 60.1 °F 54.0 °F 80% 29.84 in 10.0 mi South 6.9 mph - N/A   Clear
8:52 AM 60.1 °F 55.0 °F 83% 29.84 in 10.0 mi South 6.9 mph - N/A   Scattered Clouds
9:52 AM 64.0 °F 55.9 °F 75% 29.84 in 10.0 mi South 10.4 mph - N/A   Scattered Clouds
10:52 AM 64.9 °F 57.0 °F 75% 29.83 in 10.0 mi South 13.8 mph - N/A   Mostly Cloudy
11:52 AM 63.0 °F 57.9 °F 84% 29.81 in 10.0 mi South 11.5 mph - 0.00 in Rain Light Rain
12:52 PM 63.0 °F 59.0 °F 87% 29.79 in 9.0 mi South 8.1 mph - 0.02 in Rain Light Rain
1:09 PM 62.1 °F 59.0 °F 90% 29.82 in 10.0 mi WSW 9.2 mph - 0.00 in   Overcast
1:17 PM 62.1 °F 59.0 °F 90% 29.82 in 2.5 mi SW 12.7 mph - 0.04 in Rain , Thunderstorm Thunderstorms and Rain
1:29 PM 61.0 °F 57.9 °F 90% 29.81 in 1.5 mi WSW 19.6 mph 31.1 mph 0.13 in Rain , Thunderstorm Heavy Thunderstorms and Rain
1:35 PM 61.0 °F 55.0 °F 81% 29.81 in 4.0 mi WSW 18.4 mph 31.1 mph 0.17 in Rain , Thunderstorm Light Thunderstorms and Rain
1:41 PM 62.1 °F 55.9 °F 80% 29.80 in 8.0 mi West 10.4 mph 26.5 mph 0.17 in Rain Light Rain
1:52 PM 64.0 °F 55.0 °F 73% 29.73 in 10.0 mi SW 4.6 mph - 0.17 in Rain Light Rain
2:52 PM 68.0 °F 54.0 °F 61% 29.70 in 10.0 mi South 9.2 mph - 0.01 in   Partly Cloudy
3:52 PM 68.0 °F 52.0 °F 56% 29.66 in 10.0 mi SE 3.5 mph - N/A   Scattered Clouds
4:22 PM 60.1 °F 54.0 °F 80% 29.76 in 1.5 mi West 19.6 mph 33.4 mph 0.01 in Rain Heavy Rain
4:27 PM 55.9 °F 53.1 °F 90% 29.72 in 0.5 mi East 10.4 mph 33.4 mph 0.20 in Fog , Rain Heavy Rain
4:34 PM 60.1 °F 48.0 °F 64% 29.71 in 1.0 mi NE 9.2 mph 17.3 mph 0.41 in Rain Light Rain
4:37 PM 61.0 °F 48.9 °F 64% 29.71 in 5.0 mi NE 6.9 mph 17.3 mph 0.41 in Rain Light Rain
4:52 PM 63.0 °F 53.1 °F 70% 29.66 in 10.0 mi ENE 5.8 mph - 0.41 in   Mostly Cloudy
5:52 PM 66.9 °F 48.9 °F 52% 29.65 in 10.0 mi ENE 3.5 mph - N/A   Clear
6:52 PM 66.0 °F 52.0 °F 60% 29.65 in 10.0 mi East 8.1 mph - N/A   Clear
7:52 PM 63.0 °F 53.1 °F 70% 29.66 in 10.0 mi ESE 5.8 mph - N/A   Clear
8:52 PM 60.1 °F 54.0 °F 80% 29.68 in 10.0 mi East 8.1 mph - N/A   Clear
9:52 PM 55.9 °F 53.1 °F 90% 29.73 in 10.0 mi North 13.8 mph 24.2 mph N/A   Partly Cloudy
10:23 PM 55.0 °F 53.1 °F 93% 29.80 in 10.0 mi North 15.0 mph - N/A   Mostly Cloudy
10:40 PM 55.0 °F 52.0 °F 89% 29.80 in 10.0 mi NNE 8.1 mph - N/A   Scattered Clouds
10:52 PM 55.0 °F 52.0 °F 89% 29.77 in 10.0 mi NNE 6.9 mph - N/A   Partly Cloudy
11:52 PM 54.0 °F 52.0 °F 93% 29.80 in 10.0 mi NNE 5.8 mph - N/A   Scattered Clouds